TimeCST,TemperatureF,Dew PointF,Humidity,Sea Level PressureIn,VisibilityMPH,Wind Direction,Wind SpeedMPH,Gust SpeedMPH,PrecipitationIn,Events,Conditions,WindDirDegrees,DateUTC
12:53 AM,32.0,23.0,69,30.34,10.0,NNE,13.8,-,N/A,,Overcast,30,2013-02-15 06:53:00
1:53 AM,33.1,21.9,64,30.34,10.0,North,10.4,-,N/A,,Overcast,10,2013-02-15 07:53:00
2:53 AM,32.0,21.9,66,30.34,10.0,North,10.4,-,N/A,,Overcast,10,2013-02-15 08:53:00
3:53 AM,32.0,21.0,64,30.32,10.0,NNE,6.9,-,N/A,,Overcast,30,2013-02-15 09:53:00
4:53 AM,32.0,24.1,73,30.33,10.0,NNW,3.5,-,N/A,,Overcast,330,2013-02-15 10:53:00
5:53 AM,32.0,21.0,64,30.33,10.0,North,3.5,-,N/A,,Overcast,10,2013-02-15 11:53:00
6:53 AM,30.9,21.9,69,30.35,10.0,Calm,Calm,-,N/A,,Overcast,0,2013-02-15 12:53:00
7:53 AM,30.9,21.0,67,30.36,10.0,Calm,Calm,-,N/A,,Overcast,0,2013-02-15 13:53:00
8:53 AM,32.0,19.9,61,30.38,10.0,Calm,Calm,-,N/A,,Overcast,0,2013-02-15 14:53:00
9:53 AM,33.1,19.9,59,30.40,10.0,Calm,Calm,-,N/A,,Overcast,0,2013-02-15 15:53:00
10:53 AM,35.1,21.9,59,30.39,10.0,Calm,Calm,-,N/A,,Scattered Clouds,0,2013-02-15 16:53:00
11:53 AM,37.9,21.0,51,30.36,10.0,SW,9.2,-,N/A,,Clear,220,2013-02-15 17:53:00
12:53 PM,41.0,21.0,45,30.32,10.0,SW,16.1,19.6,N/A,,Clear,230,2013-02-15 18:53:00
1:53 PM,43.0,19.9,40,30.28,10.0,SW,12.7,20.7,N/A,,Clear,230,2013-02-15 19:53:00
2:53 PM,46.0,21.0,37,30.25,10.0,SW,12.7,-,N/A,,Clear,230,2013-02-15 20:53:00
3:53 PM,48.0,19.9,33,30.22,10.0,SW,15.0,-,N/A,,Overcast,230,2013-02-15 21:53:00
4:53 PM,48.0,19.9,33,30.22,10.0,WNW,9.2,-,N/A,,Partly Cloudy,290,2013-02-15 22:53:00
5:53 PM,46.9,15.1,28,30.22,10.0,North,10.4,-,N/A,,Partly Cloudy,350,2013-02-15 23:53:00
6:53 PM,41.0,17.1,38,30.27,10.0,NNE,15.0,-,N/A,,Mostly Cloudy,20,2013-02-16 00:53:00
7:53 PM,37.0,17.1,44,30.32,10.0,NNE,13.8,20.7,N/A,,Clear,20,2013-02-16 01:53:00
8:53 PM,35.1,17.1,48,30.37,10.0,North,15.0,-,N/A,,Clear,10,2013-02-16 02:53:00
9:53 PM,34.0,18.0,52,30.40,10.0,North,9.2,-,N/A,,Clear,10,2013-02-16 03:53:00
10:53 PM,30.9,19.0,61,30.41,10.0,North,5.8,-,N/A,,Clear,350,2013-02-16 04:53:00
11:53 PM,30.9,18.0,59,30.39,10.0,North,9.2,-,N/A,,Clear,360,2013-02-16 05:53:00